PA3DZX-13 Weather Reports


time (UTC)temp
C
wind
direction
speed
KPH
gust
KPH
rain 1hr
cm
rain 24hr
cm
rain mn
cm
humidity
%
barometer
mb
20220627203755 12 233 6.4 9.7 0.00 0.00 0.00 95 1020.1
20220627202255 12 231 6.4 9.7 0.00 0.00 0.00 94 1019.9
20220627200755 13 232 6.4 12.9 0.00 0.00 0.00 90 1019.4
20220627195256 13 232 6.4 12.9 0.00 0.00 0.00 90 1019.4
20220627193755 15 229 9.7 12.9 0.00 0.00 0.00 88 1019.4
20220627192255 15 237 9.7 17.7 0.00 0.00 0.00 89 1019.2
20220627190755 15 240 9.7 17.7 0.00 0.00 0.00 89 1019.0
20220627185255 15 262 6.4 9.7 0.00 0.00 0.00 89 1018.6
20220627183755 15 269 3.2 6.4 0.00 0.00 0.00 89 1018.3
20220627182255 15 314 3.2 6.4 0.00 0.00 0.00 89 1018.0
20220627180755 15 297 3.2 9.7 0.00 0.00 0.00 88 1017.8
20220627175255 15 309 3.2 9.7 0.00 0.00 0.00 90 1017.8
20220627173755 15 326 3.2 12.9 0.00 0.00 0.00 90 1018.0
20220627172254 15 326 9.7 20.9 0.00 0.00 0.00 91 1017.8
20220627170754 15 304 12.9 24.1 0.00 0.00 0.00 93 1018.0
20220627165254 15 288 17.7 35.4 1.70 0.00 0.00 95 1017.8
20220627163754 15 288 17.7 35.4 1.70 0.00 0.00 95 1017.8
20220627162254 17 237 3.2 6.4 0.03 0.00 0.00 77 1017.1
20220627160754 18 94 0.0 3.2 0.00 0.00 0.00 67 1016.9
20220627155254 18 84 3.2 6.4 0.00 0.00 0.00 68 1016.9
20220627153754 20 195 0.0 6.4 0.00 0.00 0.00 70 1016.7
20220627152254 20 195 0.0 6.4 0.00 0.00 0.00 70 1016.7
20220627150754 20 285 3.2 6.4 0.00 0.00 0.00 70 1016.8
20220627145253 18 287 0.0 3.2 0.00 0.00 0.00 75 1016.9
20220627143753 17 141 0.0 3.2 0.00 0.00 0.00 82 1016.3
20220627142253 17 141 0.0 3.2 0.00 0.00 0.00 82 1016.3
20220627140752 17 141 0.0 3.2 0.00 0.00 0.00 82 1016.3
20220627135252 17 183 0.0 3.2 0.00 0.00 0.00 85 1016.6
20220627133752 17 256 0.0 3.2 0.00 0.00 0.00 86 1016.5
20220627132252 17 178 0.0 3.2 0.00 0.00 0.00 83 1016.4
20220627130752 17 178 0.0 3.2 0.00 0.00 0.00 83 1016.4
20220627125252 16 319 0.0 3.2 0.00 0.00 0.00 83 1016.3
20220627123752 16 319 0.0 3.2 0.00 0.00 0.00 83 1016.3
20220627122252 16 307 3.2 3.2 0.00 0.00 0.00 82 1016.1
20220627120752 16 326 3.2 6.4 0.00 0.00 0.00 80 1016.2
20220627115252 16 310 3.2 6.4 0.00 0.00 0.00 83 1016.3
20220627113752 16 295 3.2 6.4 0.00 0.00 0.00 87 1016.2
20220627112252 15 63 3.2 6.4 0.00 0.00 0.00 90 1016.4
20220627110752 15 63 3.2 6.4 0.00 0.00 0.00 90 1016.4
20220627105252 15 63 3.2 6.4 0.00 0.00 0.00 90 1016.4
20220627103752 15 65 3.2 9.7 0.00 0.00 0.00 90 1016.5
20220627102252 15 245 3.2 6.4 0.00 0.00 0.00 92 1016.1
20220627100752 15 245 3.2 6.4 0.00 0.00 0.00 92 1016.1
20220627095252 15 245 3.2 6.4 0.00 0.00 0.00 92 1016.1
20220627093752 15 81 3.2 6.4 0.00 0.00 0.00 93 1015.3
20220627092252 15 81 3.2 6.4 0.00 0.00 0.00 93 1015.3
20220627090752 15 81 3.2 6.4 0.00 0.00 0.00 93 1015.3
20220627085251 15 333 3.2 6.4 0.00 0.00 0.00 91 1015.2
20220627083751 15 333 3.2 6.4 0.00 0.00 0.00 91 1015.2
20220627082252 15 323 3.2 6.4 0.00 0.00 0.00 91 1015.1
20220627080752 15 330 3.2 6.4 0.00 0.00 0.00 90 1015.3
20220627075251 15 345 3.2 6.4 0.00 0.00 0.00 90 1015.3
20220627073752 15 355 3.2 6.4 0.03 0.00 0.00 92 1015.2
20220627072251 15 45 3.2 6.4 0.00 0.00 0.00 93 1014.8
20220627070751 15 45 3.2 6.4 0.00 0.00 0.00 93 1014.8
20220627065251 15 45 3.2 6.4 0.00 0.00 0.00 93 1014.8
20220627063751 15 45 3.2 6.4 0.00 0.00 0.00 93 1014.8
20220627062251 15 45 3.2 6.4 0.00 0.00 0.00 93 1014.8
20220627060751 15 24 9.7 17.7 0.00 0.00 0.00 94 1014.4
20220627055251 15 19 6.4 12.9 0.00 0.00 0.00 94 1014.5
20220627053750 15 31 9.7 17.7 0.00 0.00 0.00 94 1014.8
20220627052250 15 26 9.7 17.7 0.00 0.00 0.00 94 1014.8
20220627050750 15 26 9.7 17.7 0.00 0.00 0.00 94 1014.8
20220627045250 15 5 6.4 9.7 0.00 0.00 0.00 96 1014.9
20220627043750 15 5 6.4 9.7 0.00 0.00 0.00 96 1014.9
20220627042250 15 5 6.4 9.7 0.00 0.00 0.00 96 1014.9
20220627040750 15 17 6.4 9.7 0.00 0.00 0.00 95 1015.0
20220627035250 15 358 6.4 9.7 0.00 0.00 0.00 95 1015.2
20220627033750 15 320 3.2 6.4 0.00 0.00 0.00 96 1015.5
20220627032250 15 350 0.0 6.4 0.23 0.00 0.00 96 1015.8
20220627030750 15 350 0.0 6.4 0.23 0.00 0.00 96 1015.8
20220627025250 15 350 0.0 6.4 0.23 0.00 0.00 96 1015.8
20220627023750 15 283 3.2 9.7 0.00 0.00 0.00 96 1015.8
20220627022250 15 84 0.0 3.2 0.00 0.00 0.00 96 1015.5
20220627020750 15 278 3.2 6.4 0.00 0.00 0.00 94 1015.5
20220627015250 15 278 3.2 6.4 0.00 0.00 0.00 94 1015.5
20220627013750 15 278 3.2 6.4 0.00 0.00 0.00 94 1015.5
20220627012250 15 278 3.2 6.4 0.00 0.00 0.00 94 1015.5
20220627010750 15 255 3.2 6.4 0.00 0.00 0.00 93 1015.6
20220627005250 15 95 3.2 6.4 0.00 0.00 0.00 90 1015.4
20220627003750 15 80 0.0 3.2 0.00 0.00 0.00 87 1015.5
20220627002250 15 80 0.0 3.2 0.00 0.00 0.00 87 1015.5
20220627000750 15 76 3.2 6.4 0.00 0.00 0.00 85 1015.5
20220626235250 15 31 6.4 6.4 0.00 0.00 0.00 83 1015.6
20220626233750 16 47 6.4 12.9 0.00 0.00 0.00 83 1015.7
20220626232250 16 47 6.4 12.9 0.00 0.00 0.00 83 1015.7
20220626230750 16 33 9.7 17.7 0.00 0.00 0.00 82 1015.4
20220626225250 16 50 3.2 9.7 0.00 0.00 0.00 86 1016.1
20220626223750 16 50 3.2 9.7 0.00 0.00 0.00 86 1016.1
20220626222250 16 50 3.2 9.7 0.00 0.00 0.00 86 1016.1
20220626220750 16 65 6.4 6.4 0.00 0.00 0.00 85 1016.2
20220626215249 16 65 6.4 6.4 0.00 0.00 0.00 85 1016.2
20220626213749 16 53 3.2 6.4 0.00 0.00 0.00 88 1016.4
20220626212249 16 12 3.2 3.2 0.00 0.00 0.00 86 1016.6
20220626210749 16 340 0.0 3.2 0.00 0.00 0.00 86 1016.5
20220626205249 16 340 0.0 3.2 0.00 0.00 0.00 86 1016.5